[[{"header":{"parameterUnit":"m.s-1","parameterCategory":1,"la1":30.2991,"la2":30.254,"lo1":-89.0895,"lo2":-89.0444,"dy":0.0017,"dx":0.0017,"nx":28,"ny":28,"refTime":"2024-05-02T09:00:00:Z","depth":0,"parameterNumber":2,"parameterNumberName":"U-component_of_WINDS"},"data":[0,0,0,0,0,0,0,0,0,0,0,0,0,0,0,0,0,0,0,0,0,0,0,0,0,0,0,0,0,0,0,0,0,0,0,0,0,0,0,0,0,0,0,0,0,0,0,0,0,0,0,0,0,0,0,0,0,0,-3.1606,-3.1606,0,-3.1648,-3.1648,-3.1649,-3.1612,-3.161,-3.1609,-3.1607,-3.165,-3.1652,-3.1655,0,0,0,0,0,0,0,0,0,0,0,0,0,-3.1495,-3.1498,-3.1606,-3.1606,-3.1607,-3.1648,-3.1648,-3.1649,-3.1612,-3.161,-3.1608,-3.1607,-3.1649,-3.1652,-3.1655,0,0,0,0,0,0,0,0,0,0,0,0,0,-3.1541,-3.1498,-3.1606,-3.1594,-3.1593,-3.1648,-3.1648,-3.1649,-3.1613,-3.161,-3.1608,-3.1606,-3.1648,-3.1651,-3.1655,-3.1724,0,0,-3.1667,-3.1668,0,0,0,0,0,0,0,0,-3.1538,-3.1545,-3.1595,-3.1595,-3.1594,-3.1622,-3.1625,-3.1674,-3.1613,-3.1605,-3.1607,-3.1605,-3.1642,-3.1646,-3.1659,-3.1726,-3.1727,-3.1667,-3.1669,-3.1671,-3.1672,0,0,0,0,0,0,0,-3.1535,-3.1543,-3.1622,-3.1596,-3.1595,-3.1586,-3.159,-3.1634,-3.1636,-3.1606,-3.1603,-3.1609,-3.1642,-3.1656,-3.166,-3.1728,-3.1667,-3.167,-3.1673,-3.1674,-3.1854,-3.1856,0,0,0,0,0,0,-3.1533,-3.1541,-3.1621,-3.1624,-3.156,-3.159,-3.1595,-3.1615,-3.1635,-3.1636,-3.161,-3.1607,-3.165,-3.1655,-3.1661,-3.1743,-3.1671,-3.1674,-3.1677,-3.1852,-3.1855,-3.1857,0,0,0,0,0,0,-3.1531,-3.1541,-3.1619,-3.1582,-3.1591,-3.1594,-3.1618,-3.1617,-3.1631,-3.1639,-3.1639,-3.1624,-3.1649,-3.1656,-3.1709,-3.1744,-3.1676,-3.168,-3.1849,-3.1852,-3.1856,-3.1906,0,0,0,0,0,0,-3.1528,-3.154,-3.1566,-3.1582,-3.1593,-3.1666,-3.162,-3.162,-3.1638,-3.1634,-3.1652,-3.1653,-3.1647,-3.1703,-3.1712,-3.1748,-3.1683,-3.1845,-3.185,-3.1855,-3.1902,-3.1911,-3.192,0,0,0,0,0,-3.1524,-3.1578,-3.1567,-3.1577,-3.1625,-3.1668,-3.1674,-3.1667,-3.1641,-3.1667,-3.1672,-3.1652,-3.1739,-3.1709,-3.1719,-3.1756,-3.1843,-3.1849,-3.1854,-3.1897,-3.1909,-3.192,0,0,0,0,0,0,-3.1565,-3.158,-3.1568,-3.1629,-3.1648,-3.1662,-3.1694,-3.168,-3.1706,-3.1701,-3.1691,-3.1695,-3.1751,-3.1759,-3.1725,-3.1824,-3.1787,-3.1795,-3.1816,-3.1828,-3.1837,-3.1833,-3.1686,0,0,0,0,0,-3.1581,-3.1615,-3.1626,-3.1679,-3.1689,-3.169,-3.1709,-3.1702,-3.1721,-3.1728,-3.1737,-3.1756,-3.1787,-3.1808,-3.1838,-3.1903,-3.1907,-3.1934,-3.1943,-3.1951,-3.1957,-3.1993,-3.2005,-3.1876,-3.1876,-3.1876,0,0,-3.1615,-3.1627,-3.1649,-3.1688,-3.1701,-3.1736,-3.1697,-3.1735,-3.1761,-3.1734,-3.1784,-3.1792,-3.1812,-3.1872,-3.1899,-3.188,-3.1994,-3.1958,-3.1964,-3.1966,-3.2,-3.2012,-3.2023,-3.188,-3.1879,-3.1878,0,0,-3.1693,-3.1707,-3.1752,-3.1767,-3.1788,-3.1789,-3.18,-3.1817,-3.1821,-3.1872,-3.1852,-3.1883,-3.1938,-3.1953,-3.1968,-3.2056,-3.2038,-3.2066,-3.2113,-3.2148,-3.2158,-3.2167,-3.2198,-3.2209,-3.2073,-3.2073,-3.2073,0,-3.1732,-3.1784,-3.1777,-3.1817,-3.1835,-3.1813,-3.1859,-3.1874,-3.1904,-3.1917,-3.1896,-3.1965,-3.1977,-3.204,-3.2062,-3.2075,-3.2087,-3.2063,-3.2157,-3.2166,-3.2174,-3.2203,-3.2215,-3.2076,-3.2076,-3.2075,-3.2075,0,-3.1831,-3.1867,-3.1901,-3.1931,-3.1953,-3.1996,-3.1996,-3.2019,-3.2012,-3.2015,-3.2067,-3.2082,-3.2114,-3.2129,-3.2121,-3.2192,-3.2179,-3.2159,-3.2121,-3.219,-3.2217,-3.2228,-3.208,-3.2079,-3.2078,-3.2078,0,0,-3.1934,-3.1961,-3.1973,-3.1987,-3.201,-3.2038,-3.2081,-3.2113,-3.2133,-3.2156,-3.2191,-3.2239,-3.222,-3.2237,-3.2231,-3.2262,-3.2331,-3.2237,-3.2238,-3.2253,-3.2409,-3.2424,-3.2437,-3.232,-3.2322,-3.2324,-3.2407,0,-3.2013,-3.2086,-3.2082,-3.2152,-3.2186,-3.2166,-3.2204,-3.2222,-3.2227,-3.2257,-3.2263,-3.2296,-3.2269,-3.2279,-3.2309,-3.2316,-3.2361,-3.231,-3.2353,-3.2354,-3.2346,-3.2451,-3.2466,-3.2543,-3.2417,-3.2419,-3.2421,0,-3.2114,-3.214,-3.2213,-3.2232,-3.2246,-3.228,-3.2309,-3.2338,-3.2359,-3.2361,-3.2382,-3.2371,-3.2415,-3.2378,-3.2438,-3.2403,-3.2421,-3.2427,-3.243,-3.2432,-3.239,-3.2455,-3.2568,-3.2579,-3.2437,-3.2436,-3.2435,0,-3.2181,-3.2235,-3.2285,-3.2298,-3.2322,-3.2346,-3.2357,-3.2376,-3.2396,-3.2422,-3.2435,-3.2466,-3.2483,-3.2508,-3.2506,-3.248,-3.2567,-3.253,-3.257,-3.257,-3.2587,-3.2586,-3.2703,-3.2601,-3.2601,-3.2601,-3.2601,0,-3.2268,-3.2314,-3.2316,-3.2347,-3.2397,-3.2393,-3.2443,-3.2452,-3.2469,-3.2502,-3.2488,-3.2519,-3.2516,-3.2547,-3.2547,-3.2597,-3.2605,-3.2607,-3.2606,-3.2608,-3.2607,-3.2618,-3.2612,-3.2604,-3.2603,-3.2603,-3.2602,0,-3.2351,-3.2354,-3.2408,-3.2427,-3.2433,-3.2469,-3.2485,-3.2515,-3.252,-3.2561,-3.2571,-3.2578,-3.2615,-3.2616,-3.2658,-3.2658,-3.2719,-3.2713,-3.2711,-3.271,-3.2749,-3.2745,-3.2876,-3.2893,-3.2781,-3.2782,-3.2783,0,-3.2406,-3.244,-3.2463,-3.2484,-3.2497,-3.2531,-3.2551,-3.2549,-3.2571,-3.2599,-3.2626,-3.2661,-3.2689,-3.2749,-3.2758,-3.279,-3.2784,-3.2828,-3.2788,-3.2789,-3.2783,-3.2781,-3.2784,-3.2835,-3.2836,-3.2837,-3.2838,0,-3.2503,-3.2503,-3.2533,-3.2565,-3.259,-3.2614,-3.2637,-3.2655,-3.2656,-3.2682,-3.2719,-3.2741,-3.2785,-3.282,-3.2852,-3.2864,-3.2851,-3.2851,-3.2861,-3.2862,-3.286,-3.2861,-3.2731,-3.2847,-3.2846,-3.2845,-3.2845,-3.2844,-3.2572,-3.2602,-3.2623,-3.2658,-3.2675,-3.2697,-3.2726,-3.2735,-3.2766,-3.2801,-3.2799,-3.284,-3.2862,-3.2904,-3.2918,-3.2951,-3.2936,-3.2952,-3.2955,-3.2959,-3.2963,-3.2856,-3.2957,-3.2957,-3.2957,-3.2956,-3.2956,0,-3.2668,-3.2681,-3.2713,-3.2745,-3.2773,-3.276,-3.2785,-3.2809,-3.2845,-3.2867,-3.2895,-3.2939,-3.2974,-3.2986,-3.302,-3.3044,-3.3039,-3.3053,-3.305,-3.3053,-3.2974,-3.2961,-3.3056,-3.3056,-3.3056,-3.3056,-3.3056,-3.3056,-3.272,-3.277,-3.2774,-3.2832,-3.2845,-3.2886,-3.2901,-3.2922,-3.2939,-3.2989,-3.3017,-3.3026,-3.3044,-3.308,-3.3111,-3.3114,-3.3127,-3.3143,-3.3143,-3.3069,-3.3059,-3.3049,-3.3037,-3.3146,-3.3146,-3.3219,-3.322,-3.3221]},{"header":{"parameterUnit":"m.s-1","parameterCategory":1,"la1":30.2991,"la2":30.254,"lo1":-89.0895,"lo2":-89.0444,"dy":0.0017,"dx":0.0017,"nx":28,"ny":28,"refTime":"2024-05-02T09:00:00:Z","depth":0,"parameterNumber":3,"parameterNumberName":"V-component_of_WINDS"},"data":[0,0,0,0,0,0,0,0,0,0,0,0,0,0,0,0,0,0,0,0,0,0,0,0,0,0,0,0,0,0,0,0,0,0,0,0,0,0,0,0,0,0,0,0,0,0,0,0,0,0,0,0,0,0,0,0,0,0,3.31,3.3101,0,3.3135,3.3136,3.3136,3.3112,3.3111,3.311,3.3109,3.3142,3.3143,3.3145,0,0,0,0,0,0,0,0,0,0,0,0,0,3.3011,3.3013,3.31,3.3101,3.3101,3.3135,3.3136,3.3136,3.3112,3.3111,3.3109,3.3108,3.3141,3.3143,3.3145,0,0,0,0,0,0,0,0,0,0,0,0,0,3.3048,3.3013,3.31,3.3093,3.3093,3.3135,3.3136,3.3136,3.3112,3.3111,3.3109,3.3108,3.314,3.3143,3.3146,3.3196,0,0,3.3154,3.3156,0,0,0,0,0,0,0,0,3.3046,3.3051,3.3094,3.3094,3.3094,3.3118,3.3116,3.3156,3.3113,3.3105,3.3109,3.3107,3.3135,3.3138,3.3148,3.3197,3.3199,3.3155,3.3156,3.3158,3.3158,0,0,0,0,0,0,0,3.3043,3.305,3.3114,3.3095,3.3094,3.3088,3.3091,3.3124,3.3128,3.3105,3.3104,3.3108,3.3134,3.3145,3.3148,3.3199,3.3155,3.3157,3.3159,3.316,3.3292,3.3294,0,0,0,0,0,0,3.3042,3.3048,3.3113,3.3115,3.3065,3.3091,3.3095,3.3112,3.3128,3.3129,3.311,3.3107,3.3141,3.3145,3.315,3.321,3.3158,3.316,3.3162,3.329,3.3292,3.3294,0,0,0,0,0,0,3.304,3.3048,3.3112,3.3081,3.3089,3.3094,3.3113,3.3113,3.3124,3.3131,3.3132,3.312,3.314,3.3146,3.3185,3.321,3.3161,3.3164,3.3288,3.3291,3.3293,3.333,0,0,0,0,0,0,3.3038,3.3047,3.3067,3.3082,3.309,3.3147,3.3115,3.3115,3.3129,3.3126,3.3141,3.3142,3.3139,3.3181,3.3188,3.3213,3.3166,3.3286,3.3289,3.3293,3.3327,3.3334,3.334,0,0,0,0,0,3.3034,3.3075,3.3068,3.3076,3.3115,3.3148,3.3153,3.315,3.3131,3.3151,3.3156,3.3142,3.3207,3.3185,3.3192,3.322,3.3284,3.3288,3.3292,3.3324,3.3332,3.334,0,0,0,0,0,0,3.3061,3.3077,3.3069,3.3116,3.3131,3.3144,3.3168,3.3159,3.3179,3.3176,3.317,3.3173,3.3215,3.3221,3.3196,3.3269,3.3242,3.3248,3.3264,3.3272,3.3278,3.3276,3.3169,0,0,0,0,0,3.3073,3.31,3.3111,3.3151,3.316,3.3163,3.3177,3.3174,3.3189,3.3195,3.3203,3.3217,3.3241,3.3257,3.3279,3.3328,3.3331,3.335,3.3357,3.3362,3.3367,3.3394,3.3403,3.3308,3.3308,3.3308,0,0,3.3097,3.3108,3.3125,3.3157,3.3169,3.3196,3.3168,3.3198,3.3218,3.3199,3.3237,3.3243,3.3259,3.3304,3.3324,3.331,3.3394,3.3367,3.3372,3.3374,3.3399,3.3408,3.3416,3.3311,3.331,3.331,0,0,3.3154,3.3166,3.3201,3.3213,3.3232,3.3234,3.3242,3.3257,3.3261,3.33,3.3286,3.331,3.3351,3.3363,3.3375,3.3438,3.3426,3.3446,3.348,3.3506,3.3514,3.352,3.3543,3.3552,3.3451,3.3451,3.3451,0,3.3181,3.3222,3.3219,3.3251,3.3265,3.3251,3.3286,3.3298,3.3323,3.3333,3.3318,3.337,3.3379,3.3427,3.3443,3.3452,3.3462,3.3444,3.3513,3.352,3.3526,3.3548,3.3556,3.3453,3.3453,3.3452,3.3452,0,3.3255,3.3284,3.331,3.3336,3.3353,3.3386,3.3388,3.3406,3.3401,3.3404,3.3444,3.3455,3.348,3.3491,3.3486,3.3538,3.3529,3.3514,3.3487,3.3537,3.3558,3.3566,3.3456,3.3455,3.3455,3.3454,0,0,3.3329,3.3354,3.3364,3.3375,3.3395,3.3417,3.345,3.3475,3.3491,3.3508,3.3536,3.3571,3.3558,3.3571,3.3567,3.359,3.3641,3.3572,3.3572,3.3585,3.37,3.3711,3.3721,3.3633,3.3635,3.3636,3.3698,0,3.3388,3.3446,3.3445,3.3499,3.3526,3.3513,3.3541,3.3557,3.3561,3.3584,3.3589,3.3615,3.3594,3.3602,3.3625,3.363,3.3664,3.3625,3.3658,3.3659,3.3655,3.3732,3.3744,3.3802,3.3706,3.3708,3.3709,0,3.3464,3.3486,3.3543,3.356,3.3571,3.3597,3.3621,3.3643,3.366,3.3662,3.3677,3.367,3.3703,3.3676,3.3721,3.3695,3.3708,3.3713,3.3715,3.3718,3.3687,3.3737,3.382,3.3829,3.3721,3.372,3.3719,0,3.3513,3.3557,3.3597,3.3607,3.3628,3.3646,3.3656,3.3671,3.3687,3.3707,3.3718,3.3741,3.3754,3.3772,3.3772,3.3752,3.3818,3.379,3.382,3.382,3.3834,3.3833,3.3922,3.3843,3.3843,3.3843,3.3842,0,3.3579,3.3615,3.3619,3.3644,3.3683,3.3681,3.372,3.3727,3.3742,3.3767,3.3757,3.3781,3.3779,3.3803,3.3803,3.384,3.3846,3.3848,3.3848,3.3849,3.3849,3.3858,3.3854,3.3845,3.3844,3.3844,3.3844,0,3.3641,3.3645,3.3688,3.3705,3.371,3.3738,3.3752,3.3775,3.3779,3.3812,3.3819,3.3826,3.3853,3.3855,3.3887,3.3887,3.3933,3.3928,3.3927,3.3927,3.3957,3.3954,3.4053,3.4067,3.3979,3.398,3.3981,0,3.3683,3.371,3.373,3.3747,3.3758,3.3785,3.3802,3.3801,3.3818,3.3841,3.3861,3.3888,3.391,3.3955,3.3962,3.3987,3.3982,3.4016,3.3986,3.3987,3.3983,3.3982,3.3985,3.4021,3.4022,3.4023,3.4024,0,3.3757,3.3758,3.3783,3.3809,3.3829,3.3849,3.3868,3.3882,3.3884,3.3904,3.3933,3.395,3.3983,3.4011,3.4035,3.4043,3.4034,3.4033,3.4041,3.4043,3.4042,3.4044,3.3943,3.4031,3.403,3.4029,3.4029,3.4029,3.381,3.3834,3.3852,3.388,3.3895,3.3913,3.3936,3.3944,3.3968,3.3996,3.3994,3.4027,3.4043,3.4075,3.4086,3.4111,3.4099,3.4111,3.4114,3.4117,3.4121,3.4038,3.4115,3.4115,3.4115,3.4114,3.4114,0,3.3884,3.3895,3.3921,3.3949,3.3971,3.3961,3.3982,3.4001,3.403,3.4047,3.4069,3.4103,3.4129,3.4139,3.4165,3.4183,3.4179,3.419,3.4188,3.4191,3.4129,3.412,3.4192,3.4192,3.4192,3.4192,3.4192,3.4192,3.3925,3.3965,3.3969,3.4016,3.4027,3.406,3.4073,3.4089,3.4103,3.4141,3.4164,3.4171,3.4185,3.4212,3.4236,3.4238,3.4248,3.426,3.4261,3.4203,3.4195,3.4187,3.4178,3.4262,3.4262,3.432,3.4321,3.4321]}]]